When you browse on this site, cookies collect data to enhance your experience and personalize the content and advertising you see.
Visit our Privacy Policy to learn more. By continuing to use the site, you agree to this use of cookies and data.
  • en France
  • Liste des pays
  • À 7 jours
  • Température de l'eau
  • Carte satellitaire
  • Carte météo
  • Widgets météo
  • user-avatar
    Se connecter

    Météo par heure à Dangriga

    Ce jour, 25 Avril, Jeudi

    Heure Température Précipitation Vent Pression Humidité
    00:00 +27°C° 0 mm 4 m/s 758 mmHg 86%
    01:00 +27°C° 0.1 mm 4 m/s 757 mmHg 87%
    02:00 +27°C° 0.1 mm 4 m/s 757 mmHg 89%
    03:00 +27°C° 0.1 mm 4 m/s 757 mmHg 90%
    04:00 +27°C° 0 mm 4 m/s 757 mmHg 89%
    05:00 +28°C° 0 mm 4 m/s 757 mmHg 89%
    06:00 +28°C° 0 mm 4 m/s 757 mmHg 89%
    07:00 +29°C° 0 mm 3 m/s 757 mmHg 81%
    08:00 +31°C° 0 mm 3 m/s 758 mmHg 73%
    09:00 +33°C° 0 mm 3 m/s 758 mmHg 66%
    10:00 +34°C° 0 mm 3 m/s 758 mmHg 61%
    11:00 +35°C° 0 mm 3 m/s 758 mmHg 56%
    12:00 +36°C° 0 mm 4 m/s 757 mmHg 51%
    13:00 +36°C° 0 mm 4 m/s 757 mmHg 52%
    14:00 +36°C° 0 mm 4 m/s 756 mmHg 53%
    15:00 +35°C° 0 mm 4 m/s 755 mmHg 54%
    16:00 +34°C° 0 mm 4 m/s 756 mmHg 61%
    17:00 +32°C° 0 mm 4 m/s 756 mmHg 69%
    18:00 +29°C° 0 mm 4 m/s 756 mmHg 76%
    19:00 +29°C° 0 mm 3 m/s 757 mmHg 81%
    20:00 +28°C° 0 mm 3 m/s 758 mmHg 85%
    21:00 +27°C° 0 mm 3 m/s 758 mmHg 90%
    22:00 +27°C° 0 mm 3 m/s 758 mmHg 90%
    23:00 +27°C° 0 mm 3 m/s 759 mmHg 91%

    Demain, 26 Avril, Vendredi

    Heure Température Précipitation Vent Pression Humidité
    00:00 +27°C° 0 mm 3 m/s 759 mmHg 92%
    01:00 +27°C° 0 mm 3 m/s 758 mmHg 92%
    02:00 +28°C° 0 mm 3 m/s 758 mmHg 91%
    03:00 +28°C° 0 mm 3 m/s 758 mmHg 91%
    04:00 +28°C° 0.1 mm 3 m/s 758 mmHg 92%
    05:00 +28°C° 0.1 mm 2 m/s 758 mmHg 92%
    06:00 +28°C° 0.1 mm 2 m/s 758 mmHg 92%
    07:00 +29°C° 0 mm 2 m/s 759 mmHg 82%
    08:00 +31°C° 0 mm 2 m/s 759 mmHg 72%
    09:00 +34°C° 0 mm 2 m/s 760 mmHg 62%
    10:00 +35°C° 0 mm 3 m/s 760 mmHg 57%
    11:00 +36°C° 0 mm 3 m/s 759 mmHg 51%
    12:00 +37°C° 0 mm 4 m/s 759 mmHg 46%
    13:00 +37°C° 0 mm 4 m/s 759 mmHg 47%
    14:00 +37°C° 0 mm 5 m/s 758 mmHg 48%
    15:00 +36°C° 0 mm 5 m/s 757 mmHg 49%
    16:00 +34°C° 0 mm 5 m/s 758 mmHg 57%
    17:00 +33°C° 0 mm 4 m/s 758 mmHg 66%
    18:00 +30°C° 0 mm 4 m/s 758 mmHg 74%
    19:00 +29°C° 0 mm 4 m/s 758 mmHg 80%
    20:00 +28°C° 0 mm 4 m/s 759 mmHg 85%
    21:00 +27°C° 0 mm 3 m/s 760 mmHg 90%
    22:00 +27°C° 0 mm 3 m/s 760 mmHg 91%
    23:00 +27°C° 0 mm 3 m/s 760 mmHg 92%

    Après-demain, 27 Avril, Samedi

    Heure Température Précipitation Vent Pression Humidité
    00:00 +27°C° 0 mm 2 m/s 760 mmHg 93%
    01:00 +27°C° 0 mm 2 m/s 759 mmHg 93%
    02:00 +27°C° 0 mm 2 m/s 759 mmHg 94%
    03:00 +26°C° 0 mm 2 m/s 758 mmHg 94%
    04:00 +26°C° 0 mm 2 m/s 759 mmHg 93%
    05:00 +27°C° 0 mm 1 m/s 759 mmHg 93%
    06:00 +27°C° 0 mm 1 m/s 759 mmHg 92%
    07:00 +28°C° 0 mm 2 m/s 760 mmHg 83%
    08:00 +30°C° 0 mm 2 m/s 760 mmHg 75%
    09:00 +32°C° 0 mm 2 m/s 761 mmHg 66%
    10:00 +34°C° 0 mm 3 m/s 760 mmHg 62%
    11:00 +34°C° 0 mm 3 m/s 760 mmHg 58%
    12:00 +35°C° 0 mm 3 m/s 759 mmHg 54%
    13:00 +35°C° 0 mm 4 m/s 759 mmHg 54%
    14:00 +35°C° 0 mm 4 m/s 758 mmHg 54%
    15:00 +34°C° 0 mm 4 m/s 757 mmHg 55%
    16:00 +33°C° 0 mm 4 m/s 757 mmHg 63%
    17:00 +30°C° 0 mm 3 m/s 757 mmHg 70%
    18:00 +29°C° 0 mm 3 m/s 758 mmHg 78%
    19:00 +28°C° 0 mm 3 m/s 758 mmHg 82%
    20:00 +27°C° 0 mm 3 m/s 759 mmHg 86%
    21:00 +27°C° 0 mm 3 m/s 759 mmHg 89%
    22:00 +27°C° 0 mm 3 m/s 759 mmHg 90%
    23:00 +27°C° 0 mm 3 m/s 759 mmHg 90%

    28 Avril, Dimanche

    Heure Température Précipitation Vent Pression Humidité
    00:00 +27°C° 0 mm 3 m/s 759 mmHg 91%
    01:00 +26°C° 0 mm 2 m/s 758 mmHg 91%
    02:00 +26°C° 0 mm 2 m/s 758 mmHg 92%
    03:00 +26°C° 0 mm 2 m/s 758 mmHg 92%
    04:00 +26°C° 0 mm 2 m/s 758 mmHg 93%
    05:00 +26°C° 0 mm 2 m/s 758 mmHg 93%
    06:00 +26°C° 0 mm 2 m/s 758 mmHg 93%
    07:00 +28°C° 0.1 mm 2 m/s 759 mmHg 85%
    08:00 +30°C° 0.1 mm 3 m/s 759 mmHg 76%
    09:00 +31°C° 0.1 mm 3 m/s 760 mmHg 68%
    10:00 +33°C° 0 mm 3 m/s 760 mmHg 65%
    11:00 +34°C° 0 mm 3 m/s 759 mmHg 62%
    12:00 +35°C° 0 mm 4 m/s 759 mmHg 59%
    13:00 +34°C° 0 mm 4 m/s 758 mmHg 60%
    14:00 +34°C° 0 mm 4 m/s 757 mmHg 61%
    15:00 +34°C° 0 mm 5 m/s 757 mmHg 63%
    16:00 +33°C° 0 mm 5 m/s 757 mmHg 69%
    17:00 +30°C° 0 mm 4 m/s 757 mmHg 75%
    18:00 +29°C° 0 mm 4 m/s 758 mmHg 81%
    19:00 +29°C° 0.1 mm 4 m/s 758 mmHg 84%
    20:00 +28°C° 0.1 mm 4 m/s 759 mmHg 88%
    21:00 +28°C° 0.1 mm 4 m/s 759 mmHg 91%
    22:00 +27°C° 0.2 mm 4 m/s 759 mmHg 92%
    23:00 +27°C° 0.2 mm 4 m/s 759 mmHg 93%

    29 Avril, Lundi

    Heure Température Précipitation Vent Pression Humidité
    00:00 +27°C° 0.2 mm 4 m/s 759 mmHg 94%
    01:00 +27°C° 0.2 mm 4 m/s 759 mmHg 95%
    02:00 +27°C° 0.2 mm 4 m/s 758 mmHg 96%
    03:00 +27°C° 0.2 mm 4 m/s 758 mmHg 96%
    04:00 +27°C° 0.1 mm 4 m/s 758 mmHg 96%
    05:00 +27°C° 0.1 mm 4 m/s 759 mmHg 96%
    06:00 +27°C° 0.1 mm 4 m/s 759 mmHg 96%
    07:00 +28°C° 0.4 mm 4 m/s 759 mmHg 93%
    08:00 +28°C° 0.4 mm 4 m/s 760 mmHg 91%
    09:00 +29°C° 0.4 mm 4 m/s 760 mmHg 88%
    10:00 +30°C° 0.8 mm 4 m/s 760 mmHg 84%
    11:00 +30°C° 0.8 mm 4 m/s 760 mmHg 80%
    12:00 +32°C° 0.8 mm 4 m/s 759 mmHg 76%
    13:00 +32°C° 0.1 mm 5 m/s 759 mmHg 74%
    14:00 +32°C° 0.1 mm 5 m/s 758 mmHg 71%
    15:00 +33°C° 0.1 mm 5 m/s 758 mmHg 69%
    16:00 +30°C° 0.7 mm 5 m/s 758 mmHg 77%
    17:00 +29°C° 0.7 mm 5 m/s 758 mmHg 85%
    18:00 +27°C° 0.7 mm 4 m/s 759 mmHg 93%
    19:00 +27°C° 0.7 mm 5 m/s 759 mmHg 94%
    20:00 +27°C° 0.7 mm 5 m/s 760 mmHg 95%
    21:00 +27°C° 0.7 mm 5 m/s 760 mmHg 96%
    22:00 +27°C° 0.2 mm 5 m/s 760 mmHg 95%
    23:00 +27°C° 0.2 mm 5 m/s 760 mmHg 94%

    30 Avril, Mardi

    Heure Température Précipitation Vent Pression Humidité
    00:00 +27°C° 0.2 mm 5 m/s 760 mmHg 92%
    01:00 +27°C° 0.1 mm 5 m/s 759 mmHg 92%
    02:00 +27°C° 0.1 mm 5 m/s 759 mmHg 91%
    03:00 +27°C° 0.1 mm 5 m/s 759 mmHg 90%
    04:00 +27°C° 0.1 mm 5 m/s 759 mmHg 91%
    05:00 +27°C° 0.1 mm 5 m/s 759 mmHg 91%
    06:00 +27°C° 0.1 mm 5 m/s 760 mmHg 91%
    07:00 +28°C° 0.1 mm 5 m/s 760 mmHg 85%
    08:00 +30°C° 0.1 mm 5 m/s 760 mmHg 80%
    09:00 +32°C° 0.1 mm 5 m/s 761 mmHg 75%
    10:00 +30°C° 0.9 mm 5 m/s 760 mmHg 79%
    11:00 +30°C° 0.9 mm 5 m/s 760 mmHg 84%
    12:00 +29°C° 0.9 mm 4 m/s 760 mmHg 88%
    13:00 +30°C° 0.4 mm 5 m/s 759 mmHg 82%
    14:00 +32°C° 0.4 mm 5 m/s 759 mmHg 75%
    15:00 +33°C° 0.4 mm 5 m/s 758 mmHg 68%
    16:00 +32°C° 0 mm 5 m/s 758 mmHg 72%
    17:00 +30°C° 0 mm 5 m/s 759 mmHg 76%
    18:00 +29°C° 0 mm 5 m/s 759 mmHg 80%
    19:00 +29°C° 0 mm 5 m/s 759 mmHg 82%
    20:00 +28°C° 0 mm 5 m/s 760 mmHg 84%
    21:00 +28°C° 0 mm 5 m/s 760 mmHg 86%
    22:00 +28°C° 0.2 mm 5 m/s 760 mmHg 89%
    23:00 +27°C° 0.2 mm 5 m/s 760 mmHg 92%
    Voir plus